Time,TemperatureF,DewpointF,PressureIn,WindDirection,WindDirectionDegrees,WindSpeedMPH,WindSpeedGustMPH,Humidity,HourlyPrecipIn,Conditions,Clouds,dailyrainin,SolarRadiationWatts/m^2,SoftwareType,DateUTC
2013-06-28 00:01:00,64.0,53.6,30.89,North,350,0.0,0.0,69,0.00,,,0.01,0.00,VWS V14.00,2013-06-28 06:01:00,
2013-06-28 00:06:00,63.9,53.5,30.89,North,350,0.0,0.0,69,0.00,,,0.01,0.00,VWS V14.00,2013-06-28 06:06:00,
2013-06-28 00:11:00,63.7,53.0,30.87,North,350,0.0,0.0,68,0.00,,,0.00,0.00,VWS V14.00,2013-06-28 06:11:00,
2013-06-28 00:16:00,63.5,53.2,30.88,North,350,0.0,0.0,69,0.00,,,0.00,0.00,VWS V14.00,2013-06-28 06:16:00,
2013-06-28 00:21:00,63.2,53.3,30.88,North,350,0.0,0.0,70,0.00,,,0.00,0.00,VWS V14.00,2013-06-28 06:21:00,
2013-06-28 00:26:00,62.9,53.0,30.88,North,350,0.0,0.0,70,0.00,,,0.00,0.00,VWS V14.00,2013-06-28 06:26:00,
2013-06-28 00:31:00,62.8,52.9,30.88,North,350,0.0,0.0,70,0.00,,,0.00,0.00,VWS V14.00,2013-06-28 06:31:00,
2013-06-28 00:36:00,62.6,52.3,30.89,North,350,0.0,0.0,69,0.00,,,0.00,0.00,VWS V14.00,2013-06-28 06:36:00,
2013-06-28 00:41:00,62.5,52.2,30.89,North,350,0.0,0.0,69,0.00,,,0.00,0.00,VWS V14.00,2013-06-28 06:41:00,
2013-06-28 00:46:00,62.4,52.1,30.89,North,350,0.0,1.0,69,0.00,,,0.00,0.00,VWS V14.00,2013-06-28 06:46:00,
2013-06-28 00:51:00,62.4,52.1,30.89,North,350,0.0,1.0,69,0.00,,,0.00,0.00,VWS V14.00,2013-06-28 06:51:00,
2013-06-28 00:56:00,62.3,51.2,30.89,North,350,0.0,0.0,67,0.00,,,0.00,0.00,VWS V14.00,2013-06-28 06:56:00,
2013-06-28 01:01:00,62.3,51.2,30.90,North,350,0.0,0.0,67,0.00,,,0.00,0.00,VWS V14.00,2013-06-28 07:01:00,
2013-06-28 01:06:00,62.3,50.4,30.90,North,350,0.0,0.0,65,0.00,,,0.00,0.00,VWS V14.00,2013-06-28 07:06:00,
2013-06-28 01:11:00,62.5,51.0,30.87,North,350,0.0,0.0,66,0.00,,,0.00,0.00,VWS V14.00,2013-06-28 07:11:00,
2013-06-28 01:16:00,62.5,51.4,30.87,North,350,0.0,0.0,67,0.00,,,0.00,0.00,VWS V14.00,2013-06-28 07:16:00,
2013-06-28 01:21:00,62.4,52.1,30.88,North,350,0.0,0.0,69,0.00,,,0.00,0.00,VWS V14.00,2013-06-28 07:21:00,
2013-06-28 01:26:00,62.0,51.7,30.88,North,350,0.0,3.0,69,0.00,,,0.00,0.00,VWS V14.00,2013-06-28 07:26:00,
2013-06-28 01:31:00,61.4,51.5,30.88,North,350,0.0,3.0,70,0.00,,,0.00,0.00,VWS V14.00,2013-06-28 07:31:00,
2013-06-28 01:36:00,60.6,51.2,30.88,North,350,0.0,3.0,71,0.00,,,0.00,0.00,VWS V14.00,2013-06-28 07:36:00,
2013-06-28 01:41:00,60.0,51.3,30.89,North,350,0.0,0.0,73,0.00,,,0.00,0.00,VWS V14.00,2013-06-28 07:41:00,
2013-06-28 01:46:00,59.6,51.7,30.89,North,350,0.0,0.0,75,0.00,,,0.00,0.00,VWS V14.00,2013-06-28 07:46:00,
2013-06-28 01:51:00,59.2,51.3,30.89,North,350,0.0,0.0,75,0.00,,,0.00,0.00,VWS V14.00,2013-06-28 07:51:00,
2013-06-28 01:56:00,59.0,51.1,30.89,North,350,0.0,0.0,75,0.00,,,0.00,0.00,VWS V14.00,2013-06-28 07:56:00,
2013-06-28 02:01:00,58.5,51.3,30.90,North,350,0.0,2.0,77,0.00,,,0.00,0.00,VWS V14.00,2013-06-28 08:01:00,
2013-06-28 02:06:00,58.2,51.0,30.90,North,350,0.0,2.0,77,0.00,,,0.00,0.00,VWS V14.00,2013-06-28 08:06:00,
2013-06-28 02:11:00,58.0,51.2,30.89,North,350,0.0,0.0,78,0.00,,,0.00,0.00,VWS V14.00,2013-06-28 08:11:00,
2013-06-28 02:16:00,57.7,50.5,30.90,North,350,0.0,1.0,77,0.00,,,0.00,0.00,VWS V14.00,2013-06-28 08:16:00,
2013-06-28 02:21:00,57.6,50.5,30.90,North,350,0.0,1.0,77,0.00,,,0.00,0.00,VWS V14.00,2013-06-28 08:21:00,
2013-06-28 02:26:00,57.5,50.7,30.90,North,350,0.0,0.0,78,0.00,,,0.00,0.00,VWS V14.00,2013-06-28 08:26:00,
2013-06-28 02:31:00,57.4,50.6,30.90,North,350,0.0,0.0,78,0.00,,,0.00,0.00,VWS V14.00,2013-06-28 08:31:00,
2013-06-28 02:36:00,57.3,50.5,30.90,North,350,0.0,0.0,78,0.00,,,0.00,0.00,VWS V14.00,2013-06-28 08:36:00,
2013-06-28 02:41:00,57.2,51.1,30.90,North,350,0.0,0.0,80,0.00,,,0.00,0.00,VWS V14.00,2013-06-28 08:41:00,
2013-06-28 02:46:00,57.0,50.9,30.90,North,350,0.0,0.0,80,0.00,,,0.00,0.00,VWS V14.00,2013-06-28 08:46:00,
2013-06-28 02:51:00,56.8,50.4,30.90,North,350,0.0,0.0,79,0.00,,,0.00,0.00,VWS V14.00,2013-06-28 08:51:00,
2013-06-28 02:56:00,56.6,50.5,30.90,North,350,0.0,0.0,80,0.00,,,0.00,0.00,VWS V14.00,2013-06-28 08:56:00,
2013-06-28 03:01:00,56.4,50.0,30.91,North,350,0.0,1.0,79,0.00,,,0.00,0.00,VWS V14.00,2013-06-28 09:01:00,
2013-06-28 03:06:00,56.3,49.5,30.91,North,350,2.0,3.0,78,0.00,,,0.00,0.00,VWS V14.00,2013-06-28 09:06:00,
2013-06-28 03:11:00,56.6,50.2,30.89,North,351,0.0,3.0,79,0.00,,,0.00,0.00,VWS V14.00,2013-06-28 09:11:00,
2013-06-28 03:16:00,56.4,50.0,30.89,North,351,0.0,3.0,79,0.00,,,0.00,0.00,VWS V14.00,2013-06-28 09:16:00,
2013-06-28 03:21:00,56.4,49.6,30.89,North,350,0.0,3.0,78,0.00,,,0.00,0.00,VWS V14.00,2013-06-28 09:21:00,
2013-06-28 03:26:00,56.3,49.9,30.90,North,350,0.0,0.0,79,0.00,,,0.00,0.00,VWS V14.00,2013-06-28 09:26:00,
2013-06-28 03:31:00,56.2,49.8,30.90,North,351,0.0,0.0,79,0.00,,,0.00,0.00,VWS V14.00,2013-06-28 09:31:00,
2013-06-28 03:36:00,56.2,49.4,30.89,North,351,0.0,0.0,78,0.00,,,0.00,0.00,VWS V14.00,2013-06-28 09:36:00,
2013-06-28 03:41:00,56.3,49.9,30.90,North,350,1.0,2.0,79,0.00,,,0.00,0.00,VWS V14.00,2013-06-28 09:41:00,
2013-06-28 03:46:00,56.1,49.7,30.90,North,351,0.0,3.0,79,0.00,,,0.00,0.00,VWS V14.00,2013-06-28 09:46:00,
2013-06-28 03:51:00,55.9,49.5,30.90,North,351,0.0,3.0,79,0.00,,,0.00,0.00,VWS V14.00,2013-06-28 09:51:00,
2013-06-28 03:56:00,55.8,49.4,30.89,North,351,0.0,0.0,79,0.00,,,0.00,0.00,VWS V14.00,2013-06-28 09:56:00,
2013-06-28 04:01:00,55.7,49.3,30.89,North,350,0.0,0.0,79,0.00,,,0.00,0.00,VWS V14.00,2013-06-28 10:01:00,
2013-06-28 04:06:00,55.6,48.9,30.89,North,351,0.0,0.0,78,0.00,,,0.00,0.00,VWS V14.00,2013-06-28 10:06:00,
2013-06-28 04:11:00,55.6,48.9,30.89,North,351,0.0,0.0,78,0.00,,,0.00,0.00,VWS V14.00,2013-06-28 10:11:00,
2013-06-28 04:16:00,55.7,48.6,30.89,North,351,0.0,0.0,77,0.00,,,0.00,0.00,VWS V14.00,2013-06-28 10:16:00,
2013-06-28 04:21:00,55.7,49.0,30.89,North,351,0.0,0.0,78,0.00,,,0.00,0.00,VWS V14.00,2013-06-28 10:21:00,
2013-06-28 04:26:00,55.4,49.0,30.90,North,351,0.0,0.0,79,0.00,,,0.00,0.00,VWS V14.00,2013-06-28 10:26:00,
2013-06-28 04:31:00,55.3,49.2,30.90,North,351,0.0,0.0,80,0.00,,,0.00,0.00,VWS V14.00,2013-06-28 10:31:00,
2013-06-28 04:36:00,55.0,49.3,30.91,North,351,0.0,0.0,81,0.00,,,0.00,0.00,VWS V14.00,2013-06-28 10:36:00,
2013-06-28 04:41:00,54.8,48.8,30.91,North,350,0.0,0.0,80,0.00,,,0.00,0.00,VWS V14.00,2013-06-28 10:41:00,
2013-06-28 04:46:00,54.8,48.8,30.91,North,350,0.0,0.0,80,0.00,,,0.00,0.00,VWS V14.00,2013-06-28 10:46:00,
2013-06-28 04:51:00,54.6,48.6,30.90,North,351,0.0,0.0,80,0.00,,,0.00,0.00,VWS V14.00,2013-06-28 10:51:00,
2013-06-28 04:56:00,54.7,48.7,30.91,North,351,0.0,0.0,80,0.00,,,0.00,0.00,VWS V14.00,2013-06-28 10:56:00,
2013-06-28 05:01:00,54.8,49.1,30.91,North,351,0.0,0.0,81,0.00,,,0.00,0.00,VWS V14.00,2013-06-28 11:01:00,
2013-06-28 05:06:00,55.0,49.0,30.91,North,350,0.0,0.0,80,0.00,,,0.00,0.00,VWS V14.00,2013-06-28 11:06:00,
2013-06-28 05:11:00,55.1,49.0,30.91,North,351,0.0,0.0,80,0.00,,,0.00,0.00,VWS V14.00,2013-06-28 11:11:00,
2013-06-28 05:16:00,55.2,49.5,30.91,North,351,0.0,0.0,81,0.00,,,0.00,0.00,VWS V14.00,2013-06-28 11:16:00,
2013-06-28 05:21:00,55.2,49.5,30.91,North,350,0.0,0.0,81,0.00,,,0.00,0.00,VWS V14.00,2013-06-28 11:21:00,
2013-06-28 05:26:00,55.2,49.5,30.92,North,351,0.0,0.0,81,0.00,,,0.00,0.00,VWS V14.00,2013-06-28 11:26:00,
2013-06-28 05:31:00,55.2,49.2,30.92,North,351,0.0,0.0,80,0.00,,,0.00,0.00,VWS V14.00,2013-06-28 11:31:00,
2013-06-28 05:36:00,55.2,49.2,30.92,North,350,0.0,0.0,80,0.00,,,0.00,0.00,VWS V14.00,2013-06-28 11:36:00,
2013-06-28 05:41:00,55.3,49.2,30.92,North,351,0.0,0.0,80,0.00,,,0.00,0.00,VWS V14.00,2013-06-28 11:41:00,
2013-06-28 05:46:00,55.3,49.6,30.92,North,350,0.0,0.0,81,0.00,,,0.00,0.00,VWS V14.00,2013-06-28 11:46:00,
2013-06-28 05:51:00,55.3,49.9,30.92,North,350,0.0,0.0,82,0.00,,,0.00,0.00,VWS V14.00,2013-06-28 11:51:00,
2013-06-28 05:56:00,55.4,49.3,30.92,North,351,0.0,0.0,80,0.00,,,0.00,5.00,VWS V14.00,2013-06-28 11:56:00,
2013-06-28 06:01:00,55.4,49.7,30.92,North,351,0.0,0.0,81,0.00,,,0.00,7.00,VWS V14.00,2013-06-28 12:01:00,
2013-06-28 06:06:00,55.5,49.8,30.92,North,351,0.0,0.0,81,0.00,,,0.00,7.00,VWS V14.00,2013-06-28 12:06:00,
2013-06-28 06:11:00,55.5,49.8,30.94,North,350,0.0,0.0,81,0.00,,,0.00,9.00,VWS V14.00,2013-06-28 12:11:00,
2013-06-28 06:16:00,55.5,50.1,30.94,North,360,0.0,1.0,82,0.00,,,0.00,11.00,VWS V14.00,2013-06-28 12:16:00,
2013-06-28 06:21:00,55.5,50.1,30.94,North,5,0.0,1.0,82,0.00,,,0.00,12.00,VWS V14.00,2013-06-28 12:21:00,
2013-06-28 06:26:00,55.5,50.1,30.94,North,360,0.0,0.0,82,0.00,,,0.00,12.00,VWS V14.00,2013-06-28 12:26:00,
2013-06-28 06:31:00,55.5,50.1,30.94,North,360,0.0,0.0,82,0.00,,,0.00,14.00,VWS V14.00,2013-06-28 12:31:00,
2013-06-28 06:36:00,55.4,50.3,30.95,North,360,0.0,0.0,83,0.00,,,0.00,44.00,VWS V14.00,2013-06-28 12:36:00,
2013-06-28 06:41:00,55.4,50.3,30.96,North,5,0.0,0.0,83,0.00,,,0.00,16.00,VWS V14.00,2013-06-28 12:41:00,
2013-06-28 06:46:00,55.3,49.9,30.96,North,5,0.0,0.0,82,0.00,,,0.00,16.00,VWS V14.00,2013-06-28 12:46:00,
2013-06-28 06:51:00,55.2,50.1,30.96,North,5,0.0,0.0,83,0.00,,,0.00,18.00,VWS V14.00,2013-06-28 12:51:00,
2013-06-28 06:56:00,55.2,50.5,30.96,North,5,0.0,0.0,84,0.00,,,0.00,18.00,VWS V14.00,2013-06-28 12:56:00,
2013-06-28 07:01:00,55.1,50.4,30.96,North,360,0.0,0.0,84,0.00,,,0.00,18.00,VWS V14.00,2013-06-28 13:01:00,
2013-06-28 07:06:00,55.1,50.4,30.96,North,5,0.0,0.0,84,0.00,,,0.00,19.00,VWS V14.00,2013-06-28 13:06:00,
2013-06-28 07:11:00,55.2,50.5,30.98,North,360,0.0,1.0,84,0.00,,,0.00,19.00,VWS V14.00,2013-06-28 13:11:00,
2013-06-28 07:16:00,55.4,50.7,30.98,North,5,0.0,3.0,84,0.00,,,0.00,21.00,VWS V14.00,2013-06-28 13:16:00,
2013-06-28 07:21:00,55.6,50.8,30.98,North,360,2.0,3.0,84,0.00,,,0.00,21.00,VWS V14.00,2013-06-28 13:21:00,
2013-06-28 07:26:00,55.9,51.1,30.98,North,5,2.0,3.0,84,0.00,,,0.00,21.00,VWS V14.00,2013-06-28 13:26:00,
2013-06-28 07:31:00,56.1,51.3,30.98,North,5,0.0,3.0,84,0.00,,,0.00,21.00,VWS V14.00,2013-06-28 13:31:00,
2013-06-28 07:36:00,56.3,51.5,30.98,North,360,0.0,3.0,84,0.00,,,0.00,23.00,VWS V14.00,2013-06-28 13:36:00,
2013-06-28 07:41:00,56.6,51.5,30.98,North,5,0.0,3.0,83,0.00,,,0.00,23.00,VWS V14.00,2013-06-28 13:41:00,
2013-06-28 07:46:00,56.8,51.7,30.98,North,360,0.0,3.0,83,0.00,,,0.00,25.00,VWS V14.00,2013-06-28 13:46:00,
2013-06-28 07:51:00,57.1,52.0,30.98,North,5,0.0,3.0,83,0.00,,,0.00,33.00,VWS V14.00,2013-06-28 13:51:00,
2013-06-28 07:56:00,57.3,51.5,30.98,North,5,0.0,0.0,81,0.00,,,0.00,33.00,VWS V14.00,2013-06-28 13:56:00,
2013-06-28 08:01:00,57.5,51.7,30.98,North,5,0.0,0.0,81,0.00,,,0.00,32.00,VWS V14.00,2013-06-28 14:01:00,
2013-06-28 08:06:00,57.6,51.5,30.98,North,5,0.0,0.0,80,0.00,,,0.00,26.00,VWS V14.00,2013-06-28 14:06:00,
2013-06-28 08:11:00,57.8,52.0,31.00,North,5,0.0,0.0,81,0.00,,,0.00,54.00,VWS V14.00,2013-06-28 14:11:00,
2013-06-28 08:16:00,58.0,51.9,31.00,North,360,0.0,0.0,80,0.00,,,0.00,142.00,VWS V14.00,2013-06-28 14:16:00,
2013-06-28 08:21:00,58.4,52.3,31.00,North,5,0.0,0.0,80,0.00,,,0.00,362.00,VWS V14.00,2013-06-28 14:21:00,
2013-06-28 08:26:00,58.8,52.7,30.99,North,5,0.0,1.0,80,0.00,,,0.00,376.00,VWS V14.00,2013-06-28 14:26:00,
2013-06-28 08:31:00,59.0,52.5,30.99,North,360,0.0,1.0,79,0.00,,,0.00,392.00,VWS V14.00,2013-06-28 14:31:00,
2013-06-28 08:36:00,59.7,53.2,30.99,North,5,0.0,1.0,79,0.00,,,0.00,406.00,VWS V14.00,2013-06-28 14:36:00,
2013-06-28 08:41:00,60.6,53.4,30.99,North,5,0.0,1.0,77,0.00,,,0.00,418.00,VWS V14.00,2013-06-28 14:41:00,
2013-06-28 08:46:00,61.3,53.7,30.99,North,360,0.0,1.0,76,0.00,,,0.00,432.00,VWS V14.00,2013-06-28 14:46:00,
2013-06-28 08:51:00,62.1,54.5,30.99,North,360,0.0,1.0,76,0.00,,,0.00,446.00,VWS V14.00,2013-06-28 14:51:00,
2013-06-28 08:56:00,62.8,54.4,30.98,North,5,0.0,0.0,74,0.00,,,0.00,461.00,VWS V14.00,2013-06-28 14:56:00,
2013-06-28 09:01:00,63.5,55.1,30.98,North,5,0.0,2.0,74,0.00,,,0.00,475.00,VWS V14.00,2013-06-28 15:01:00,
2013-06-28 09:06:00,64.3,55.5,30.98,North,5,0.0,3.0,73,0.00,,,0.00,487.00,VWS V14.00,2013-06-28 15:06:00,
2013-06-28 09:11:00,65.0,55.4,30.99,NNE,19,0.0,1.0,71,0.00,,,0.00,499.00,VWS V14.00,2013-06-28 15:11:00,
2013-06-28 09:16:00,65.5,55.9,30.99,NNE,18,0.0,1.0,71,0.00,,,0.00,512.00,VWS V14.00,2013-06-28 15:16:00,
2013-06-28 09:21:00,66.0,56.3,30.98,NNE,19,0.0,1.0,71,0.00,,,0.00,526.00,VWS V14.00,2013-06-28 15:21:00,
2013-06-28 09:26:00,66.5,55.2,30.97,NNE,18,0.0,1.0,67,0.00,,,0.00,540.00,VWS V14.00,2013-06-28 15:26:00,
2013-06-28 09:31:00,67.0,56.5,30.97,NNE,19,0.0,1.0,69,0.00,,,0.00,552.00,VWS V14.00,2013-06-28 15:31:00,
2013-06-28 09:36:00,67.5,57.0,30.97,NNE,18,0.0,4.0,69,0.00,,,0.00,566.00,VWS V14.00,2013-06-28 15:36:00,
2013-06-28 09:41:00,67.9,56.5,30.97,NNE,18,0.0,1.0,67,0.00,,,0.00,578.00,VWS V14.00,2013-06-28 15:41:00,
2013-06-28 09:46:00,68.2,56.4,30.97,NNE,18,0.0,1.0,66,0.00,,,0.00,592.00,VWS V14.00,2013-06-28 15:46:00,
2013-06-28 09:51:00,68.6,57.2,30.95,NNE,17,0.0,4.0,67,0.00,,,0.00,601.00,VWS V14.00,2013-06-28 15:51:00,
2013-06-28 09:56:00,68.9,57.5,30.96,NNE,16,0.0,1.0,67,0.00,,,0.00,615.00,VWS V14.00,2013-06-28 15:56:00,
2013-06-28 10:01:00,69.2,56.5,30.96,NNE,13,0.0,4.0,64,0.00,,,0.00,628.00,VWS V14.00,2013-06-28 16:01:00,
2013-06-28 10:06:00,69.5,56.8,30.95,NNE,13,0.0,4.0,64,0.00,,,0.00,640.00,VWS V14.00,2013-06-28 16:06:00,
2013-06-28 10:11:00,70.0,58.1,30.95,North,360,0.0,3.0,66,0.00,,,0.00,650.00,VWS V14.00,2013-06-28 16:11:00,
2013-06-28 10:16:00,70.4,57.2,30.95,North,360,0.0,3.0,63,0.00,,,0.00,664.00,VWS V14.00,2013-06-28 16:16:00,
2013-06-28 10:21:00,70.8,57.6,30.94,North,360,0.0,3.0,63,0.00,,,0.00,671.00,VWS V14.00,2013-06-28 16:21:00,
2013-06-28 10:26:00,71.3,57.6,30.94,NNW,346,0.0,4.0,62,0.00,,,0.00,686.00,VWS V14.00,2013-06-28 16:26:00,
2013-06-28 10:31:00,71.7,56.6,30.94,NNW,337,0.0,5.0,59,0.00,,,0.00,696.00,VWS V14.00,2013-06-28 16:31:00,
2013-06-28 10:36:00,72.1,57.0,30.93,NW,325,2.0,6.0,59,0.00,,,0.00,707.00,VWS V14.00,2013-06-28 16:36:00,
2013-06-28 10:41:00,72.4,56.8,30.94,NW,319,0.0,3.0,58,0.00,,,0.00,717.00,VWS V14.00,2013-06-28 16:41:00,
2013-06-28 10:46:00,72.8,57.2,30.93,NW,321,0.0,5.0,58,0.00,,,0.00,728.00,VWS V14.00,2013-06-28 16:46:00,
2013-06-28 10:51:00,73.0,56.9,30.93,NW,315,0.0,5.0,57,0.00,,,0.00,737.00,VWS V14.00,2013-06-28 16:51:00,
2013-06-28 10:56:00,73.3,56.7,30.92,NW,308,1.0,5.0,56,0.00,,,0.00,747.00,VWS V14.00,2013-06-28 16:56:00,
2013-06-28 11:01:00,73.5,56.4,30.93,NNW,327,0.0,5.0,55,0.00,,,0.00,758.00,VWS V14.00,2013-06-28 17:01:00,
2013-06-28 11:06:00,74.0,58.3,30.92,NNW,327,0.0,5.0,58,0.00,,,0.00,768.00,VWS V14.00,2013-06-28 17:06:00,
2013-06-28 11:11:00,74.5,56.3,30.94,NNW,327,0.0,1.0,53,0.00,,,0.00,777.00,VWS V14.00,2013-06-28 17:11:00,
2013-06-28 11:16:00,75.0,57.2,30.93,NNW,327,0.0,1.0,54,0.00,,,0.00,788.00,VWS V14.00,2013-06-28 17:16:00,
2013-06-28 11:21:00,75.3,57.5,30.93,NNW,327,0.0,3.0,54,0.00,,,0.00,796.00,VWS V14.00,2013-06-28 17:21:00,
2013-06-28 11:26:00,75.8,58.5,30.93,NNW,327,0.0,0.0,55,0.00,,,0.00,803.00,VWS V14.00,2013-06-28 17:26:00,
2013-06-28 11:31:00,76.3,56.3,30.93,NNW,328,2.0,4.0,50,0.00,,,0.00,810.00,VWS V14.00,2013-06-28 17:31:00,
2013-06-28 11:36:00,76.7,53.8,30.93,NNW,328,0.0,4.0,45,0.00,,,0.00,819.00,VWS V14.00,2013-06-28 17:36:00,
2013-06-28 11:41:00,77.1,56.5,30.92,NNW,328,0.0,3.0,49,0.00,,,0.00,826.00,VWS V14.00,2013-06-28 17:41:00,
2013-06-28 11:46:00,77.4,56.2,30.92,NNW,327,0.0,5.0,48,0.00,,,0.00,833.00,VWS V14.00,2013-06-28 17:46:00,
2013-06-28 11:51:00,77.7,57.6,30.91,NW,324,4.0,5.0,50,0.00,,,0.00,842.00,VWS V14.00,2013-06-28 17:51:00,
2013-06-28 11:56:00,78.1,55.0,30.91,NW,323,0.0,1.0,45,0.00,,,0.00,849.00,VWS V14.00,2013-06-28 17:56:00,
2013-06-28 12:01:00,78.4,55.9,30.91,NNW,343,3.0,6.0,46,0.00,,,0.00,854.00,VWS V14.00,2013-06-28 18:01:00,
2013-06-28 12:06:00,78.6,55.5,30.91,NNW,341,3.0,6.0,45,0.00,,,0.00,860.00,VWS V14.00,2013-06-28 18:06:00,
2013-06-28 12:11:00,78.7,55.0,30.91,NNW,338,2.0,4.0,44,0.00,,,0.00,867.00,VWS V14.00,2013-06-28 18:11:00,
2013-06-28 12:16:00,78.9,55.2,30.91,NNW,338,0.0,5.0,44,0.00,,,0.00,870.00,VWS V14.00,2013-06-28 18:16:00,
2013-06-28 12:21:00,79.2,55.4,30.91,NNW,341,0.0,5.0,44,0.00,,,0.00,877.00,VWS V14.00,2013-06-28 18:21:00,
2013-06-28 12:26:00,79.6,56.4,30.90,NNW,344,4.0,6.0,45,0.00,,,0.00,882.00,VWS V14.00,2013-06-28 18:26:00,
2013-06-28 12:31:00,79.7,56.5,30.90,NNW,346,1.0,6.0,45,0.00,,,0.00,886.00,VWS V14.00,2013-06-28 18:31:00,
2013-06-28 12:36:00,79.7,58.3,30.89,NW,322,0.0,6.0,48,0.00,,,0.00,889.00,VWS V14.00,2013-06-28 18:36:00,
2013-06-28 12:41:00,79.8,57.2,30.89,NNW,333,0.0,6.0,46,0.00,,,0.00,891.00,VWS V14.00,2013-06-28 18:41:00,
2013-06-28 12:46:00,79.9,54.8,30.89,NNW,334,0.0,6.0,42,0.00,,,0.00,896.00,VWS V14.00,2013-06-28 18:46:00,
2013-06-28 12:51:00,80.1,56.2,30.88,NNW,338,4.0,6.0,44,0.00,,,0.00,900.00,VWS V14.00,2013-06-28 18:51:00,
2013-06-28 12:56:00,80.2,57.6,30.88,NNW,344,3.0,6.0,46,0.00,,,0.00,904.00,VWS V14.00,2013-06-28 18:56:00,
2013-06-28 13:01:00,80.5,56.0,30.88,NNW,344,0.0,6.0,43,0.00,,,0.00,907.00,VWS V14.00,2013-06-28 19:01:00,
2013-06-28 13:06:00,80.9,55.0,30.88,North,351,0.0,6.0,41,0.00,,,0.00,909.00,VWS V14.00,2013-06-28 19:06:00,
2013-06-28 13:11:00,81.1,56.5,30.90,North,351,0.0,0.0,43,0.00,,,0.00,907.00,VWS V14.00,2013-06-28 19:11:00,
2013-06-28 13:16:00,81.5,54.9,30.89,North,355,0.0,6.0,40,0.00,,,0.00,911.00,VWS V14.00,2013-06-28 19:16:00,
2013-06-28 13:21:00,82.0,59.2,30.88,North,350,0.0,6.0,46,0.00,,,0.00,911.00,VWS V14.00,2013-06-28 19:21:00,
2013-06-28 13:26:00,82.3,55.6,30.88,NNW,329,0.0,5.0,40,0.00,,,0.00,912.00,VWS V14.00,2013-06-28 19:26:00,
2013-06-28 13:31:00,82.6,57.2,30.88,NNW,329,2.0,6.0,42,0.00,,,0.00,912.00,VWS V14.00,2013-06-28 19:31:00,
2013-06-28 13:36:00,82.9,58.8,30.88,NNW,330,2.0,6.0,44,0.00,,,0.00,912.00,VWS V14.00,2013-06-28 19:36:00,
2013-06-28 13:41:00,83.2,57.8,30.88,NNW,327,5.0,6.0,42,0.00,,,0.00,909.00,VWS V14.00,2013-06-28 19:41:00,
2013-06-28 13:46:00,83.2,56.4,30.88,NNW,329,0.0,6.0,40,0.00,,,0.00,909.00,VWS V14.00,2013-06-28 19:46:00,
2013-06-28 13:51:00,83.4,57.9,30.88,NNW,327,5.0,6.0,42,0.00,,,0.00,907.00,VWS V14.00,2013-06-28 19:51:00,
2013-06-28 13:56:00,83.5,55.2,30.87,NNW,329,0.0,5.0,38,0.00,,,0.00,905.00,VWS V14.00,2013-06-28 19:56:00,
2013-06-28 14:01:00,83.6,58.8,30.86,NNW,340,1.0,6.0,43,0.00,,,0.00,904.00,VWS V14.00,2013-06-28 20:01:00,
2013-06-28 14:06:00,83.8,54.8,30.86,NW,313,0.0,6.0,37,0.00,,,0.00,904.00,VWS V14.00,2013-06-28 20:06:00,
2013-06-28 14:11:00,84.0,55.7,30.87,NW,315,0.0,5.0,38,0.00,,,0.00,898.00,VWS V14.00,2013-06-28 20:11:00,
2013-06-28 14:16:00,84.3,56.0,30.87,NW,317,2.0,5.0,38,0.00,,,0.00,900.00,VWS V14.00,2013-06-28 20:16:00,
2013-06-28 14:21:00,84.6,58.3,30.86,NNW,329,0.0,6.0,41,0.00,,,0.00,896.00,VWS V14.00,2013-06-28 20:21:00,
2013-06-28 14:26:00,85.0,57.3,30.86,NNW,330,0.0,4.0,39,0.00,,,0.00,895.00,VWS V14.00,2013-06-28 20:26:00,
2013-06-28 14:31:00,85.3,56.1,30.86,NNW,332,0.0,5.0,37,0.00,,,0.00,889.00,VWS V14.00,2013-06-28 20:31:00,
2013-06-28 14:36:00,85.6,56.4,30.85,NNW,331,4.0,5.0,37,0.00,,,0.00,884.00,VWS V14.00,2013-06-28 20:36:00,
2013-06-28 14:41:00,85.7,56.5,30.84,NNW,330,0.0,6.0,37,0.00,,,0.00,881.00,VWS V14.00,2013-06-28 20:41:00,
2013-06-28 14:46:00,85.9,57.4,30.84,North,350,1.0,7.0,38,0.00,,,0.00,877.00,VWS V14.00,2013-06-28 20:46:00,
2013-06-28 14:51:00,86.0,56.0,30.84,NNW,348,3.0,7.0,36,0.00,,,0.00,872.00,VWS V14.00,2013-06-28 20:51:00,
2013-06-28 14:56:00,86.1,56.8,30.83,NNW,341,5.0,7.0,37,0.00,,,0.00,865.00,VWS V14.00,2013-06-28 20:56:00,
2013-06-28 15:01:00,86.1,57.5,30.83,NNW,344,4.0,8.0,38,0.00,,,0.00,861.00,VWS V14.00,2013-06-28 21:01:00,
2013-06-28 15:06:00,86.1,57.5,30.83,NW,326,3.0,8.0,38,0.00,,,0.00,858.00,VWS V14.00,2013-06-28 21:06:00,
2013-06-28 15:11:00,86.2,60.4,30.83,NNW,334,7.0,9.0,42,0.00,,,0.00,853.00,VWS V14.00,2013-06-28 21:11:00,
2013-06-28 15:16:00,86.3,59.2,30.83,North,350,5.0,9.0,40,0.00,,,0.00,846.00,VWS V14.00,2013-06-28 21:16:00,
2013-06-28 15:21:00,86.5,60.0,30.82,NNW,348,4.0,9.0,41,0.00,,,0.00,838.00,VWS V14.00,2013-06-28 21:21:00,
2013-06-28 15:26:00,86.6,60.1,30.82,NNW,334,6.0,7.0,41,0.00,,,0.00,831.00,VWS V14.00,2013-06-28 21:26:00,
2013-06-28 15:31:00,86.8,58.2,30.82,NNW,348,0.0,8.0,38,0.00,,,0.00,824.00,VWS V14.00,2013-06-28 21:31:00,
2013-06-28 15:36:00,86.8,58.2,30.82,NW,326,4.0,10.0,38,0.00,,,0.00,816.00,VWS V14.00,2013-06-28 21:36:00,
2013-06-28 15:41:00,86.9,57.5,30.82,NNW,337,4.0,8.0,37,0.00,,,0.00,810.00,VWS V14.00,2013-06-28 21:41:00,
2013-06-28 15:46:00,87.0,56.1,30.82,NNW,333,5.0,8.0,35,0.00,,,0.00,800.00,VWS V14.00,2013-06-28 21:46:00,
2013-06-28 15:51:00,87.1,59.9,30.81,North,355,4.0,8.0,40,0.00,,,0.00,793.00,VWS V14.00,2013-06-28 21:51:00,
2013-06-28 15:56:00,87.3,58.6,30.81,NNW,336,5.0,7.0,38,0.00,,,0.00,784.00,VWS V14.00,2013-06-28 21:56:00,
2013-06-28 16:01:00,87.6,61.0,30.79,NNW,344,6.0,9.0,41,0.00,,,0.00,777.00,VWS V14.00,2013-06-28 22:01:00,
2013-06-28 16:06:00,87.8,57.5,30.80,NNW,344,5.0,9.0,36,0.00,,,0.00,768.00,VWS V14.00,2013-06-28 22:06:00,
2013-06-28 16:11:00,88.0,62.0,30.80,NNW,334,5.0,7.0,42,0.00,,,0.00,761.00,VWS V14.00,2013-06-28 22:11:00,
2013-06-28 16:16:00,88.3,60.2,30.80,NNW,348,0.0,10.0,39,0.00,,,0.00,751.00,VWS V14.00,2013-06-28 22:16:00,
2013-06-28 16:21:00,88.4,59.6,30.80,NNW,340,5.0,10.0,38,0.00,,,0.00,742.00,VWS V14.00,2013-06-28 22:21:00,
2013-06-28 16:26:00,88.6,59.8,30.79,NNW,344,3.0,7.0,38,0.00,,,0.00,729.00,VWS V14.00,2013-06-28 22:26:00,
2013-06-28 16:31:00,88.8,60.7,30.78,NNW,335,3.0,8.0,39,0.00,,,0.00,719.00,VWS V14.00,2013-06-28 22:31:00,
2013-06-28 16:36:00,88.9,59.3,30.79,NW,320,3.0,10.0,37,0.00,,,0.00,708.00,VWS V14.00,2013-06-28 22:36:00,
2013-06-28 16:41:00,88.9,60.0,30.78,NW,319,7.0,9.0,38,0.00,,,0.00,698.00,VWS V14.00,2013-06-28 22:41:00,
2013-06-28 16:46:00,89.0,61.6,30.78,NNW,337,6.0,9.0,40,0.00,,,0.00,689.00,VWS V14.00,2013-06-28 22:46:00,
2013-06-28 16:51:00,89.1,59.5,30.78,NW,319,2.0,9.0,37,0.00,,,0.00,675.00,VWS V14.00,2013-06-28 22:51:00,
2013-06-28 16:56:00,89.2,61.0,30.78,NNW,330,6.0,6.0,39,0.00,,,0.00,663.00,VWS V14.00,2013-06-28 22:56:00,
2013-06-28 17:01:00,89.4,63.3,30.78,NNW,337,4.0,9.0,42,0.00,,,0.00,652.00,VWS V14.00,2013-06-28 23:01:00,
2013-06-28 17:06:00,89.5,59.8,30.77,NNW,332,5.0,9.0,37,0.00,,,0.00,640.00,VWS V14.00,2013-06-28 23:06:00,
2013-06-28 17:11:00,89.6,60.7,30.76,NNW,341,3.0,7.0,38,0.00,,,0.00,629.00,VWS V14.00,2013-06-28 23:11:00,
2013-06-28 17:16:00,89.8,60.8,30.76,NNW,346,3.0,7.0,38,0.00,,,0.00,615.00,VWS V14.00,2013-06-28 23:16:00,
2013-06-28 17:21:00,89.8,60.8,30.76,NNW,343,6.0,7.0,38,0.00,,,0.00,606.00,VWS V14.00,2013-06-28 23:21:00,
2013-06-28 17:26:00,89.7,59.2,30.77,NNW,342,5.0,7.0,36,0.00,,,0.00,592.00,VWS V14.00,2013-06-28 23:26:00,
2013-06-28 17:31:00,89.8,60.1,30.76,NNW,346,5.0,7.0,37,0.00,,,0.00,578.00,VWS V14.00,2013-06-28 23:31:00,
2013-06-28 17:36:00,89.8,60.1,30.76,NNW,333,4.0,7.0,37,0.00,,,0.00,563.00,VWS V14.00,2013-06-28 23:36:00,
2013-06-28 17:41:00,89.8,60.8,30.75,NNW,328,4.0,7.0,38,0.00,,,0.00,552.00,VWS V14.00,2013-06-28 23:41:00,
2013-06-28 17:46:00,89.6,60.7,30.75,NNW,342,3.0,9.0,38,0.00,,,0.00,541.00,VWS V14.00,2013-06-28 23:46:00,
2013-06-28 17:51:00,89.6,61.4,30.75,NNW,336,5.0,9.0,39,0.00,,,0.00,526.00,VWS V14.00,2013-06-28 23:51:00,
2013-06-28 17:56:00,89.4,61.2,30.76,NNW,338,8.0,11.0,39,0.00,,,0.00,512.00,VWS V14.00,2013-06-28 23:56:00,
2013-06-28 18:01:00,89.1,61.7,30.76,NNW,338,3.0,11.0,40,0.00,,,0.00,501.00,VWS V14.00,2013-06-29 00:01:00,
2013-06-28 18:06:00,89.0,60.8,30.75,NNW,334,5.0,11.0,39,0.00,,,0.00,489.00,VWS V14.00,2013-06-29 00:06:00,
2013-06-28 18:11:00,89.0,62.3,30.75,NNW,342,3.0,7.0,41,0.00,,,0.00,475.00,VWS V14.00,2013-06-29 00:11:00,
2013-06-28 18:16:00,89.0,63.6,30.75,NNW,342,5.0,7.0,43,0.00,,,0.00,462.00,VWS V14.00,2013-06-29 00:16:00,
2013-06-28 18:21:00,88.9,62.9,30.75,NNW,344,5.0,7.0,42,0.00,,,0.00,446.00,VWS V14.00,2013-06-29 00:21:00,
2013-06-28 18:26:00,88.7,62.0,30.75,NNW,344,6.0,6.0,41,0.00,,,0.00,429.00,VWS V14.00,2013-06-29 00:26:00,
2013-06-28 18:31:00,88.5,61.1,30.75,NNW,348,4.0,8.0,40,0.00,,,0.00,418.00,VWS V14.00,2013-06-29 00:31:00,
2013-06-28 18:36:00,88.2,62.2,30.75,North,349,2.0,10.0,42,0.00,,,0.00,403.00,VWS V14.00,2013-06-29 00:36:00,
2013-06-28 18:41:00,88.0,64.0,30.74,NNW,348,4.0,8.0,45,0.00,,,0.00,388.00,VWS V14.00,2013-06-29 00:41:00,
2013-06-28 18:47:00,87.9,63.3,30.75,NNW,340,3.0,9.0,44,0.00,,,0.00,376.00,VWS V14.00,2013-06-29 00:47:00,
2013-06-28 18:52:00,87.7,63.1,30.75,NNW,337,6.0,9.0,44,0.00,,,0.00,360.00,VWS V14.00,2013-06-29 00:52:00,
2013-06-28 18:57:00,87.4,62.2,30.75,NNW,335,6.0,9.0,43,0.00,,,0.00,346.00,VWS V14.00,2013-06-29 00:57:00,
2013-06-28 19:02:00,87.1,61.9,30.75,NNW,330,6.0,9.0,43,0.00,,,0.00,332.00,VWS V14.00,2013-06-29 01:02:00,
2013-06-28 19:07:00,87.0,63.1,30.75,NNW,333,7.0,9.0,45,0.00,,,0.00,318.00,VWS V14.00,2013-06-29 01:07:00,
2013-06-28 19:12:00,86.8,62.9,30.74,NNW,336,5.0,8.0,45,0.00,,,0.00,304.00,VWS V14.00,2013-06-29 01:12:00,
2013-06-28 19:17:00,86.6,63.4,30.74,NNW,336,0.0,8.0,46,0.00,,,0.00,290.00,VWS V14.00,2013-06-29 01:17:00,
2013-06-28 19:22:00,86.5,62.7,30.73,NNW,334,3.0,8.0,45,0.00,,,0.00,276.00,VWS V14.00,2013-06-29 01:22:00,
2013-06-28 19:27:00,86.4,62.6,30.73,NNW,334,4.0,5.0,45,0.00,,,0.00,262.00,VWS V14.00,2013-06-29 01:27:00,
2013-06-28 19:32:00,86.3,62.5,30.73,NNW,336,3.0,5.0,45,0.00,,,0.00,248.00,VWS V14.00,2013-06-29 01:32:00,
2013-06-28 19:37:00,86.2,62.4,30.73,NNW,336,0.0,5.0,45,0.00,,,0.00,234.00,VWS V14.00,2013-06-29 01:37:00,
2013-06-28 19:42:00,86.0,63.4,30.73,NNW,336,3.0,5.0,47,0.00,,,0.00,220.00,VWS V14.00,2013-06-29 01:42:00,
2013-06-28 19:47:00,85.9,64.5,30.72,NNW,336,0.0,5.0,49,0.00,,,0.00,207.00,VWS V14.00,2013-06-29 01:47:00,
2013-06-28 19:52:00,85.7,63.8,30.73,NNW,336,0.0,5.0,48,0.00,,,0.00,195.00,VWS V14.00,2013-06-29 01:52:00,
2013-06-28 19:57:00,85.4,64.1,30.73,NNW,336,0.0,4.0,49,0.00,,,0.00,181.00,VWS V14.00,2013-06-29 01:57:00,
2013-06-28 20:02:00,85.2,65.1,30.73,NNW,336,0.0,4.0,51,0.00,,,0.00,169.00,VWS V14.00,2013-06-29 02:02:00,
2013-06-28 20:07:00,85.0,65.4,30.73,NNW,336,0.0,4.0,52,0.00,,,0.00,156.00,VWS V14.00,2013-06-29 02:07:00,
2013-06-28 20:12:00,84.8,65.8,30.70,NNW,336,1.0,4.0,53,0.00,,,0.00,144.00,VWS V14.00,2013-06-29 02:12:00,
2013-06-28 20:17:00,84.4,65.4,30.70,NNW,336,0.0,4.0,53,0.00,,,0.00,134.00,VWS V14.00,2013-06-29 02:17:00,
2013-06-28 20:22:00,83.9,64.9,30.70,NNW,336,0.0,4.0,53,0.00,,,0.00,123.00,VWS V14.00,2013-06-29 02:22:00,
2013-06-28 20:27:00,83.4,64.5,30.70,NNW,336,0.0,4.0,53,0.00,,,0.00,113.00,VWS V14.00,2013-06-29 02:27:00,
2013-06-28 20:32:00,82.9,64.6,30.71,NNW,336,3.0,4.0,54,0.00,,,0.00,100.00,VWS V14.00,2013-06-29 02:32:00,
2013-06-28 20:37:00,82.4,64.6,30.71,NNW,336,0.0,4.0,55,0.00,,,0.00,88.00,VWS V14.00,2013-06-29 02:37:00,
2013-06-28 20:42:00,82.1,64.9,30.72,NNW,336,0.0,2.0,56,0.00,,,0.00,76.00,VWS V14.00,2013-06-29 02:42:00,
2013-06-28 20:47:00,81.6,62.8,30.72,NNW,336,4.0,4.0,53,0.00,,,0.00,63.00,VWS V14.00,2013-06-29 02:47:00,
2013-06-28 20:52:00,81.2,62.5,30.73,NNW,336,0.0,5.0,53,0.00,,,0.00,54.00,VWS V14.00,2013-06-29 02:52:00,
2013-06-28 20:57:00,80.8,62.1,30.73,NNW,336,0.0,4.0,53,0.00,,,0.00,44.00,VWS V14.00,2013-06-29 02:57:00,
2013-06-28 21:02:00,80.5,61.3,30.73,NNW,336,0.0,4.0,52,0.00,,,0.00,12.00,VWS V14.00,2013-06-29 03:02:00,
2013-06-28 21:07:00,80.1,60.9,30.73,NNW,336,0.0,4.0,52,0.00,,,0.00,11.00,VWS V14.00,2013-06-29 03:07:00,
2013-06-28 21:12:00,79.6,61.0,30.70,NNW,336,0.0,0.0,53,0.00,,,0.00,9.00,VWS V14.00,2013-06-29 03:12:00,
2013-06-28 21:17:00,79.2,60.6,30.71,NNW,336,0.0,1.0,53,0.00,,,0.00,7.00,VWS V14.00,2013-06-29 03:17:00,
2013-06-28 21:22:00,78.7,59.6,30.72,NNW,336,0.0,1.0,52,0.00,,,0.00,7.00,VWS V14.00,2013-06-29 03:22:00,
2013-06-28 21:27:00,78.3,59.2,30.72,NNW,336,0.0,0.0,52,0.00,,,0.00,5.00,VWS V14.00,2013-06-29 03:27:00,
2013-06-28 21:32:00,77.9,59.4,30.73,NNW,336,0.0,0.0,53,0.00,,,0.00,0.00,VWS V14.00,2013-06-29 03:32:00,
2013-06-28 21:37:00,77.6,59.1,30.73,NNW,336,0.0,0.0,53,0.00,,,0.00,0.00,VWS V14.00,2013-06-29 03:37:00,
2013-06-28 21:42:00,77.3,58.8,30.73,NNW,336,3.0,3.0,53,0.00,,,0.00,0.00,VWS V14.00,2013-06-29 03:42:00,
2013-06-28 21:47:00,77.0,58.0,30.73,NNW,336,0.0,4.0,52,0.00,,,0.00,0.00,VWS V14.00,2013-06-29 03:47:00,
2013-06-28 21:52:00,76.8,57.9,30.74,NNW,336,0.0,4.0,52,0.00,,,0.00,0.00,VWS V14.00,2013-06-29 03:52:00,
2013-06-28 21:57:00,76.6,58.2,30.74,NNW,336,0.0,1.0,53,0.00,,,0.00,0.00,VWS V14.00,2013-06-29 03:57:00,
2013-06-28 22:01:00,76.4,59.1,30.74,NNW,336,1.0,2.0,55,0.00,,,0.00,0.00,VWS V14.00,2013-06-29 04:01:00,
2013-06-28 22:06:00,76.0,58.2,30.74,NNW,336,0.0,2.0,54,0.00,,,0.00,0.00,VWS V14.00,2013-06-29 04:06:00,
2013-06-28 22:11:00,75.8,57.5,30.72,NNW,336,0.0,0.0,53,0.00,,,0.00,0.00,VWS V14.00,2013-06-29 04:11:00,
2013-06-28 22:16:00,75.6,57.3,30.73,NNW,336,0.0,0.0,53,0.00,,,0.00,0.00,VWS V14.00,2013-06-29 04:16:00,
2013-06-28 22:21:00,75.4,58.6,30.73,NNW,336,0.0,0.0,56,0.00,,,0.00,0.00,VWS V14.00,2013-06-29 04:21:00,
2013-06-28 22:26:00,74.8,59.5,30.73,NNW,336,0.0,0.0,59,0.00,,,0.00,0.00,VWS V14.00,2013-06-29 04:26:00,
2013-06-28 22:31:00,74.1,58.9,30.74,NNW,336,0.0,0.0,59,0.00,,,0.00,0.00,VWS V14.00,2013-06-29 04:31:00,
2013-06-28 22:36:00,73.3,57.7,30.75,NNW,336,0.0,0.0,58,0.00,,,0.00,0.00,VWS V14.00,2013-06-29 04:36:00,
2013-06-28 22:41:00,72.5,57.8,30.75,NNW,336,0.0,0.0,60,0.00,,,0.00,0.00,VWS V14.00,2013-06-29 04:41:00,
2013-06-28 22:46:00,71.9,57.7,30.75,NNW,336,0.0,0.0,61,0.00,,,0.00,0.00,VWS V14.00,2013-06-29 04:46:00,
2013-06-28 22:51:00,71.5,58.3,30.75,NNW,336,0.0,0.0,63,0.00,,,0.00,0.00,VWS V14.00,2013-06-29 04:51:00,
2013-06-28 22:56:00,71.0,57.3,30.76,NNW,336,0.0,0.0,62,0.00,,,0.00,0.00,VWS V14.00,2013-06-29 04:56:00,
2013-06-28 23:01:00,70.6,58.3,30.76,NNW,336,1.0,2.0,65,0.00,,,0.00,0.00,VWS V14.00,2013-06-29 05:01:00,
2013-06-28 23:06:00,70.2,57.9,30.76,NNW,336,0.0,2.0,65,0.00,,,0.00,0.00,VWS V14.00,2013-06-29 05:06:00,
2013-06-28 23:11:00,69.7,57.0,30.74,NNW,336,0.0,0.0,64,0.00,,,0.00,0.00,VWS V14.00,2013-06-29 05:11:00,
2013-06-28 23:16:00,69.5,56.8,30.74,NNW,336,0.0,0.0,64,0.00,,,0.00,0.00,VWS V14.00,2013-06-29 05:16:00,
2013-06-28 23:21:00,69.4,57.6,30.74,NNW,336,0.0,0.0,66,0.00,,,0.00,0.00,VWS V14.00,2013-06-29 05:21:00,
2013-06-28 23:26:00,69.1,58.1,30.75,NNW,336,0.0,0.0,68,0.00,,,0.00,0.00,VWS V14.00,2013-06-29 05:26:00,
2013-06-28 23:31:00,68.4,57.0,30.75,NNW,336,3.0,4.0,67,0.00,,,0.00,0.00,VWS V14.00,2013-06-29 05:31:00,
2013-06-28 23:36:00,67.3,56.8,30.76,NNW,336,0.0,4.0,69,0.00,,,0.00,0.00,VWS V14.00,2013-06-29 05:36:00,
2013-06-28 23:41:00,66.8,57.1,30.76,NNW,336,0.0,0.0,71,0.00,,,0.00,0.00,VWS V14.00,2013-06-29 05:41:00,
2013-06-28 23:46:00,66.2,56.5,30.77,NNW,336,0.0,0.0,71,0.00,,,0.00,0.00,VWS V14.00,2013-06-29 05:46:00,
2013-06-28 23:51:00,65.8,56.2,30.77,NNW,336,0.0,0.0,71,0.00,,,0.00,0.00,VWS V14.00,2013-06-29 05:51:00,
2013-06-28 23:56:00,65.6,56.0,30.77,NNW,336,0.0,0.0,71,0.00,,,0.00,0.00,VWS V14.00,2013-06-29 05:56:00,